User: anonymous   Login
Location: Unspecified
(0.0000°N, 0.0000°E)
Time: 16:39:35
(UTC+00:00)
Language:

COSMOS 2483 - Orbit

View from above orbital plane
View from above orbital plane
View from above satellite
View from above satellite

Ground track
Ground track

The orbit data is extracted from the following two-line orbital elements,

1 39058U 13001B   17204.66922241 +.00000042 +00000-0 +22797-3 0  9992
2 39058 082.4993 080.5997 0015433 280.6258 079.3082 12.43945165205137
Epoch (UTC): 23 July 2017 16:03:40
Eccentricity: 0.0015433
inclination: 82.4993°
perigee height: 1478 km
apogee height: 1502 km
right ascension of ascending node: 80.5997°
argument of perigee: 280.6258°
revolutions per day: 12.43945165
mean anomaly at epoch: 79.3082°
orbit number at epoch: 20513

The dashed part of the orbit path shows where the satellite is in the earth's shadow,  

DLR